Change the Weather History Date:

Monday, October 24, 2011

  Actual Average (KOMA) Record (KOMA)
Temperature  
Mean Temperature 58 °F 50 °F  
Max Temperature 75 °F 61 °F 85 °F (1927)
Min Temperature 42 °F 39 °F 18 °F (1887)
Degree Days  
Heating Degree Days 6 15  
Month to date heating degree days 265  
Since 1 July heating degree days 368  
Cooling Degree Days 0 0  
Month to date cooling degree days 12  
Year to date cooling degree days 1109  
Growing Degree Days 8 (Base 50)    
Moisture  
Dew Point 37 °F    
Average Humidity 50    
Maximum Humidity 76    
Minimum Humidity 27    
Precipitation  
Precipitation 0.00 in 0.07 in 1.60 in (1997)
Month to date precipitation 1.72  
Year to date precipitation 27.51  
Snow  
Snow 0.00 in 0.00 in - ()
Month to date snowfall 0.2  
Since 1 July snowfall 0.2  
Snow Depth -    
Sea Level Pressure  
Sea Level Pressure 30.02 in    
Wind  
Wind Speed 4 mph (South)    
Max Wind Speed 16 mph    
Max Gust Speed 21 mph    
Visibility 10 miles    
Events      
T = Trace of Precipitation, MM = Missing Value Source: NWS Daily Summary

Daily Weather History Graph

Daily Weather History Graph

Search for Another Location

Airport or City:

Trip Planner

Search our weather history database for the weather conditions in past years. The results will help you decide how hot, cold, wet, or windy it might be!

Date:

Astronomy

Oct. 24, 2011 Rise Set
Actual Time 7:46 AM CDT 6:30 PM CDT
Civil Twilight 7:17 AM CDT 6:58 PM CDT
Nautical Twilight 6:45 AM CDT 7:30 PM CDT
Astronomical Twilight 6:13 AM CDT 8:02 PM CDT
Moon 5:04 AM CDT (10/24) 4:56 PM CDT (10/24)
Length of Visible Light 11h 40m
Length of Day
10h 44m
Waning Crescent, 7% of the Moon is Illuminated
Oct 24
Waning Crescent
Oct 26
New
Nov 2
First Quarter
Nov 10
Full
Nov 18
Last Quarter

Hourly Weather History & Observations

Time (CDT) Temp. Windchill Dew Point Humidity Pressure Visibility Wind Dir Wind Speed Gust Speed Precip Events Conditions
12:15 AM 53.6 °F - 35.6 °F 51% 30.01 in 10.0 mi NNW 3.5 mph - N/A   Clear
12:35 AM 51.8 °F - 35.6 °F 54% 30.01 in 10.0 mi Calm Calm - N/A   Clear
12:55 AM 51.8 °F - 35.6 °F 54% 30.03 in 10.0 mi Calm Calm - N/A   Clear
1:15 AM 50.0 °F - 35.6 °F 58% 30.03 in 10.0 mi Calm Calm - N/A   Clear
1:35 AM 50.0 °F - 35.6 °F 58% 30.03 in 10.0 mi Calm Calm - N/A   Clear
1:55 AM 50.0 °F - 35.6 °F 58% 30.04 in 10.0 mi West 3.5 mph - N/A   Clear
2:15 AM 50.0 °F - 35.6 °F 58% 30.04 in 10.0 mi West 3.5 mph - N/A   Clear
2:35 AM 50.0 °F - 35.6 °F 58% 30.04 in 10.0 mi WNW 4.6 mph - N/A   Clear
2:55 AM 50.0 °F - 35.6 °F 58% 30.05 in 10.0 mi Calm Calm - N/A   Clear
3:15 AM 44.6 °F 43.1 °F 35.6 °F 71% 30.04 in 10.0 mi SW 3.5 mph - N/A   Clear
3:35 AM 46.4 °F - 35.6 °F 66% 30.04 in 10.0 mi Calm Calm - N/A   Clear
3:55 AM 48.2 °F - 35.6 °F 62% 30.05 in 10.0 mi WSW 4.6 mph - N/A   Clear
4:15 AM 50.0 °F - 35.6 °F 58% 30.05 in 10.0 mi WSW 3.5 mph - N/A   Clear
4:35 AM 46.4 °F - 35.6 °F 66% 30.05 in 10.0 mi Calm Calm - N/A   Clear
4:55 AM 46.4 °F - 35.6 °F 66% 30.05 in 10.0 mi Calm Calm - N/A   Clear
5:15 AM 46.4 °F 45.2 °F 35.6 °F 66% 30.06 in 10.0 mi WSW 3.5 mph - N/A   Clear
5:35 AM 46.4 °F - 35.6 °F 66% 30.06 in 10.0 mi Calm Calm - N/A   Clear
5:55 AM 46.4 °F - 35.6 °F 66% 30.07 in 10.0 mi Calm Calm - N/A   Clear
6:15 AM 44.6 °F - 35.6 °F 71% 30.07 in 10.0 mi Calm Calm - N/A   Clear
6:35 AM 44.6 °F - 35.6 °F 71% 30.07 in 10.0 mi Calm Calm - N/A   Clear
6:55 AM 44.6 °F - 35.6 °F 71% 30.07 in 10.0 mi Calm Calm - N/A   Clear
7:15 AM 42.8 °F - 35.6 °F 76% 30.07 in 10.0 mi Calm Calm - N/A   Clear
7:35 AM 42.8 °F - 35.6 °F 76% 30.08 in 10.0 mi Calm Calm - N/A   Clear
8:15 AM 42.8 °F 41.1 °F 35.6 °F 76% 30.08 in 10.0 mi South 3.5 mph - N/A   Clear
8:35 AM 44.6 °F 43.1 °F 37.4 °F 76% 30.08 in 10.0 mi SSE 3.5 mph - N/A   Clear
8:55 AM 46.4 °F 44.3 °F 37.4 °F 71% 30.08 in 10.0 mi South 4.6 mph - N/A   Clear
9:15 AM 48.2 °F - 41.0 °F 76% 30.09 in 10.0 mi South 4.6 mph - N/A   Clear
9:35 AM 50.0 °F - 41.0 °F 71% 30.09 in 10.0 mi South 4.6 mph - N/A   Clear
9:55 AM 53.6 °F - 41.0 °F 62% 30.09 in 10.0 mi South 4.6 mph - N/A   Clear
10:15 AM 55.4 °F - 41.0 °F 58% 30.09 in 10.0 mi SSW 5.8 mph - N/A   Clear
10:35 AM 59.0 °F - 41.0 °F 51% 30.09 in 10.0 mi SSW 8.1 mph - N/A   Clear
10:55 AM 60.8 °F - 41.0 °F 48% 30.09 in 10.0 mi South 9.2 mph - N/A   Clear
11:15 AM 62.6 °F - 41.0 °F 45% 30.09 in 10.0 mi SSW 8.1 mph - N/A   Clear
11:35 AM 64.4 °F - 39.2 °F 40% 30.09 in 10.0 mi SSW 12.7 mph 19.6 mph N/A   Clear
11:55 AM 68.0 °F - 37.4 °F 33% 30.08 in 10.0 mi SSW 12.7 mph - N/A   Clear
12:15 PM 68.0 °F - 37.4 °F 33% 30.08 in 10.0 mi South 16.1 mph - N/A   Clear
12:35 PM 69.8 °F - 37.4 °F 31% 30.07 in 10.0 mi SSW 16.1 mph 20.7 mph N/A   Clear
12:55 PM 69.8 °F - 37.4 °F 31% 30.05 in 10.0 mi SSW 12.7 mph 17.3 mph N/A   Clear
1:15 PM 69.8 °F - 39.2 °F 33% 30.04 in 10.0 mi South 10.4 mph - N/A   Clear
1:35 PM 71.6 °F - 37.4 °F 29% 30.03 in 10.0 mi South 8.1 mph - N/A   Clear
2:15 PM 71.6 °F - 37.4 °F 29% 30.00 in 10.0 mi SSE 8.1 mph - N/A   Clear
2:35 PM 73.4 °F - 37.4 °F 27% 29.98 in 10.0 mi ESE 8.1 mph - N/A   Clear
2:55 PM 71.6 °F - 37.4 °F 29% 29.96 in 10.0 mi SE 8.1 mph - N/A   Clear
3:15 PM 71.6 °F - 39.2 °F 31% 29.95 in 10.0 mi ESE 8.1 mph - N/A   Clear
3:35 PM 73.4 °F - 39.2 °F 29% 29.94 in 10.0 mi ESE 10.4 mph - N/A   Clear
3:55 PM 73.4 °F - 41.0 °F 31% 29.93 in 10.0 mi ESE 9.2 mph - N/A   Clear
4:15 PM 75.2 °F - 39.2 °F 27% 29.92 in 10.0 mi SE 9.2 mph - N/A   Clear
4:35 PM 73.4 °F - 37.4 °F 27% 29.91 in 10.0 mi SE 10.4 mph - N/A   Clear
4:55 PM 73.4 °F - 37.4 °F 27% 29.91 in 10.0 mi SE 10.4 mph 16.1 mph N/A   Clear
5:15 PM 73.4 °F - 37.4 °F 27% 29.89 in 10.0 mi SE 11.5 mph - N/A   Clear
5:35 PM 73.4 °F - 37.4 °F 27% 29.88 in 10.0 mi SE 9.2 mph - N/A   Clear
5:55 PM 73.4 °F - 37.4 °F 27% 29.87 in 10.0 mi SE 10.4 mph - N/A   Clear
6:15 PM 71.6 °F - 37.4 °F 29% 29.86 in 10.0 mi SE 9.2 mph - N/A   Clear
6:35 PM 69.8 °F - 37.4 °F 31% 29.86 in 10.0 mi SE 9.2 mph - N/A   Clear
6:55 PM 69.8 °F - 37.4 °F 31% 29.85 in 10.0 mi SE 10.4 mph - N/A   Clear
7:15 PM 69.8 °F - 37.4 °F 31% 29.85 in 10.0 mi SE 8.1 mph - N/A   Clear
7:35 PM 69.8 °F - 35.6 °F 28% 29.84 in 10.0 mi SE 12.7 mph - N/A   Clear
7:55 PM 69.8 °F - 35.6 °F 28% 29.84 in 10.0 mi SE 11.5 mph - N/A   Clear
8:15 PM 69.8 °F - 35.6 °F 28% 29.83 in 10.0 mi SE 9.2 mph - N/A   Clear
8:35 PM 69.8 °F - 35.6 °F 28% 29.82 in 10.0 mi SSE 10.4 mph - N/A   Clear
9:15 PM 69.8 °F - 37.4 °F 31% 29.81 in 10.0 mi SSE 13.8 mph 18.4 mph N/A   Clear
9:35 PM 68.0 °F - 37.4 °F 33% 29.81 in 10.0 mi SSE 12.7 mph 18.4 mph N/A   Clear
10:15 PM 68.0 °F - 41.0 °F 37% 29.81 in 10.0 mi SSE 13.8 mph - N/A   Clear
10:35 PM 68.0 °F - 41.0 °F 37% 29.80 in 10.0 mi South 16.1 mph 20.7 mph N/A   Clear
10:55 PM 68.0 °F - 42.8 °F 40% 29.79 in 10.0 mi South 17.3 mph - N/A   Clear
11:15 PM 68.0 °F - 42.8 °F 40% 29.79 in 10.0 mi South 17.3 mph - N/A   Clear
11:35 PM 68.0 °F - 44.6 °F 43% 29.78 in 10.0 mi South 17.3 mph 21.9 mph N/A   Clear
11:55 PM 68.0 °F - 44.6 °F 43% 29.78 in 10.0 mi South 20.7 mph 25.3 mph N/A   Clear